Location: ??
(35.3025°N, 139.5731°E)
Time: 23:03:24
(UTC+00:00)

Meteor 2-3 Rocket - Pass Details

Date: 11 December 2025
Orbit: 844 x 881 km, 81.2° (Epoch: 10 April)

Event Time Altitude Azimuth Distance (km) Brightness Sun altitude
Rises 19:53:53 0° 201° (SSW) 3,450 6.8 -21.2°
Reaches altitude 10° 19:56:24 10° 207° (SSW) 2,512 6.0 -20.7°
Maximum altitude 20:01:54 49° 282° (WNW) 1,105 3.9 -19.6°
Drops below altitude 10° 20:07:24 10° 356° (N) 2,503 6.0 -18.5°
Sets 20:09:55 0° 2° (N) 3,437 6.7 -18.0°
